GW3894 Weather Reports


time (UTC)temp
C
wind
direction
speed
KPH
gust
KPH
rain 1hr
cm
rain 24hr
cm
rain mn
cm
humidity
%
barometer
mb
20260504234809 26 159 3.2 9.7 0.00 0.00 0.00 49 1001.1
20260504234308 26 134 3.2 12.9 0.00 0.00 0.00 48 1001.0
20260504233805 26 166 4.8 14.5 0.00 0.00 0.00 49 1001.1
20260504233304 26 147 4.8 16.1 0.00 0.00 0.00 48 1001.1
20260504232803 26 131 6.4 17.7 0.00 0.00 0.00 47 1001.1
20260504232304 26 146 4.8 17.7 0.00 0.00 0.00 47 1001.2
20260504232248 26 153 4.8 17.7 0.00 0.00 0.00 48 1001.3
20260504231304 26 109 4.8 19.3 0.00 0.00 0.00 47 1001.3
20260504230803 26 131 4.8 19.3 0.00 0.00 0.00 47 1001.4
20260504230304 26 142 6.4 19.3 0.00 0.00 0.00 46 1001.4
20260504225802 26 96 4.8 19.3 0.00 0.00 0.00 47 1001.4
20260504225300 26 145 4.8 19.3 0.00 0.00 0.00 46 1001.5
20260504224759 27 65 4.8 20.9 0.00 0.00 0.00 46 1001.4
20260504224259 26 129 3.2 20.9 0.00 0.00 0.00 47 1001.5
20260504223758 26 130 4.8 16.1 0.00 0.00 0.00 47 1001.5
20260504223257 27 148 4.8 16.1 0.00 0.00 0.00 47 1001.7
20260504222758 27 138 4.8 12.9 0.00 0.00 0.00 46 1001.7
20260504222258 27 113 4.8 16.1 0.00 0.00 0.00 46 1001.8
20260504221752 27 205 4.8 17.7 0.00 0.00 0.00 45 1001.8
20260504221245 27 174 3.2 17.7 0.00 0.00 0.00 48 1001.7
20260504220739 27 155 3.2 12.9 0.00 0.00 0.00 48 1001.7
20260504220235 27 119 3.2 12.9 0.00 0.00 0.00 48 1001.8
20260504215728 27 142 4.8 14.5 0.00 0.00 0.00 48 1001.7
20260504215439 27 101 4.8 14.5 0.00 0.00 0.00 47 1001.8
20260504214716 27 270 4.8 14.5 0.00 0.00 0.00 48 1001.7
20260504214209 27 93 4.8 14.5 0.00 0.00 0.00 48 1001.8
20260504213703 27 81 4.8 14.5 0.00 0.00 0.00 50 1001.9
20260504213157 27 196 4.8 17.7 0.00 0.00 0.00 50 1001.8
20260504212652 26 155 6.4 19.3 0.00 0.00 0.00 50 1001.9
20260504212146 26 49 8.0 20.9 0.00 0.00 0.00 52 1001.9
20260504211908 26 174 6.4 20.9 0.00 0.00 0.00 53 1002.0
20260504211134 26 144 6.4 19.3 0.00 0.00 0.00 55 1002.0
20260504210851 26 96 6.4 19.3 0.00 0.00 0.00 57 1002.0
20260504210343 26 142 6.4 16.1 0.00 0.00 0.00 58 1002.0
20260504205841 25 100 4.8 12.9 0.00 0.00 0.00 59 1001.9
20260504205109 25 138 4.8 12.9 0.00 0.00 0.00 61 1002.0
20260504204604 25 322 6.4 17.7 0.00 0.00 0.00 61 1002.1
20260504204058 25 98 6.4 17.7 0.00 0.00 0.00 60 1002.3
20260504203551 25 96 4.8 16.1 0.00 0.00 0.00 59 1002.4
20260504203046 25 98 4.8 16.1 0.00 0.00 0.00 59 1002.4
20260504202540 25 78 4.8 14.5 0.00 0.00 0.00 61 1002.6
20260504202034 25 160 4.8 16.1 0.00 0.00 0.00 59 1002.5
20260504201528 24 120 6.4 16.1 0.00 0.00 0.00 59 1002.5
20260504201022 24 106 6.4 17.7 0.00 0.00 0.00 60 1002.6
20260504200737 23 113 4.8 17.7 0.00 0.00 0.00 61 1002.7
20260504200009 23 150 6.4 17.7 0.00 0.00 0.00 62 1003.0
20260504195504 23 113 6.4 17.7 0.00 0.00 0.00 63 1002.8
20260504194958 23 144 4.8 16.1 0.00 0.00 0.00 64 1002.9
20260504194452 22 88 4.8 16.1 0.00 0.00 0.00 65 1003.0
20260504193946 22 144 6.4 16.1 0.00 0.00 0.00 63 1003.0
20260504193440 22 116 6.4 16.1 0.00 0.00 0.00 65 1003.1
20260504192934 22 113 6.4 19.3 0.00 0.00 0.00 67 1003.2
20260504192428 21 105 6.4 20.9 0.00 0.00 0.00 68 1003.3
20260504191921 21 82 4.8 20.9 0.00 0.00 0.00 68 1003.3
20260504191415 20 127 4.8 12.9 0.00 0.00 0.00 73 1003.5
20260504190910 20 122 4.8 14.5 0.00 0.00 0.00 75 1003.2
20260504190404 18 0 4.8 14.5 0.00 0.00 0.00 75 1003.0
20260504190346 18 65 4.8 14.5 0.00 0.00 0.00 75 1003.1
20260504185352 18 80 4.8 16.1 0.00 0.00 0.00 75 1002.8
20260504184846 18 72 6.4 17.7 0.00 0.00 0.00 75 1003.0
20260504184340 18 58 4.8 17.7 0.00 0.00 0.00 74 1003.5
20260504183834 18 115 6.4 14.5 0.00 0.00 0.00 72 1004.2
20260504183328 19 146 6.4 14.5 0.00 0.00 0.00 71 1004.2
20260504183040 19 70 4.8 14.5 0.00 0.00 0.00 70 1004.3
20260504182317 19 102 4.8 11.3 0.00 0.00 0.00 70 1004.5
20260504181809 19 88 4.8 14.5 0.00 0.00 0.00 71 1004.5
20260504181307 19 88 4.8 14.5 0.00 0.00 0.00 72 1004.3
20260504180807 18 153 4.8 11.3 0.00 0.00 0.00 73 1004.1
20260504180306 18 146 3.2 11.3 0.00 0.00 0.00 72 1004.3
20260504175806 18 138 3.2 9.7 0.00 0.00 0.00 73 1004.3
20260504175306 18 116 3.2 9.7 0.00 0.00 0.00 73 1004.3
20260504175026 18 57 3.2 11.3 0.00 0.00 0.00 73 1004.2
20260504174306 18 140 3.2 11.3 0.00 0.00 0.00 75 1004.3
20260504173806 18 96 3.2 9.7 0.00 0.00 0.00 75 1004.5
20260504173523 18 88 4.8 12.9 0.00 0.00 0.00 73 1004.7
20260504172805 18 88 4.8 14.5 0.00 0.00 0.00 72 1004.7
20260504172306 18 69 3.2 14.5 0.00 0.00 0.00 71 1004.8
20260504171805 18 80 3.2 12.9 0.00 0.00 0.00 70 1004.9
20260504171305 18 112 4.8 12.9 0.00 0.00 0.00 71 1004.9
20260504170806 18 115 3.2 11.3 0.00 0.00 0.00 72 1004.8
20260504170301 17 130 3.2 11.3 0.00 0.00 0.00 72 1004.9
20260504160258 18 101 4.8 17.7 0.00 0.00 0.00 66 1005.2
20260504150750 18 152 3.2 12.9 0.00 0.00 0.00 62 1006.2
20260504150251 18 103 3.2 11.3 0.00 0.00 0.00 61 1006.3
20260504141014 20 154 4.8 20.9 0.00 0.00 0.00 59 1006.4
20260504140238 20 141 6.4 20.9 0.00 0.00 0.00 59 1006.3
20260504130631 17 199 4.8 12.9 0.00 0.00 0.00 68 1007.0
20260504130125 17 92 4.8 14.5 0.00 0.00 0.00 68 1007.1
20260504120205 16 144 3.2 6.4 0.00 0.00 0.00 71 1007.4
20260504110407 15 265 0.0 3.2 0.00 0.00 0.00 73 1007.2
20260504100517 15 90 0.0 3.2 0.00 0.00 0.00 73 1007.5
20260504081720 15 101 0.0 1.6 0.00 0.00 0.00 75 1007.5
20260504081220 15 101 0.0 3.2 0.00 0.00 0.00 75 1007.5
20260504080721 15 101 0.0 3.2 0.00 0.00 0.00 74 1007.5
20260504080218 15 101 0.0 1.6 0.00 0.00 0.00 74 1007.4
20260504070212 16 101 0.0 0.0 0.00 0.00 0.00 70 1007.6
20260504060110 18 339 1.6 6.4 0.00 0.00 0.00 59 1008.1
20260504050513 18 203 1.6 6.4 0.00 0.00 0.00 58 1007.5
20260504050011 18 203 1.6 6.4 0.00 0.00 0.00 58 1007.4
20260504045505 18 200 1.6 4.8 0.00 0.00 0.00 57 1007.3
20260504044959 18 63 1.6 8.0 0.00 0.00 0.00 57 1007.3
20260504044453 19 142 1.6 8.0 0.00 0.00 0.00 57 1007.3
20260504044207 19 198 1.6 4.8 0.00 0.00 0.00 57 1007.4
20260504043441 19 217 1.6 4.8 0.00 0.00 0.00 56 1007.5
20260504042935 19 132 0.0 3.2 0.00 0.00 0.00 55 1007.5
20260504042429 20 132 0.0 3.2 0.00 0.00 0.00 55 1007.6
20260504041923 20 171 1.6 11.3 0.00 0.00 0.00 54 1007.7
20260504041416 20 142 1.6 11.3 0.00 0.00 0.00 54 1007.9
20260504041129 20 119 1.6 4.8 0.00 0.00 0.00 53 1008.0
20260504040405 20 119 1.6 6.4 0.00 0.00 0.00 53 1008.1
20260504035859 20 211 3.2 9.7 0.00 0.00 0.00 53 1008.2
20260504035353 20 224 4.8 9.7 0.00 0.00 0.00 52 1008.2
20260504034847 21 190 4.8 14.5 0.00 0.00 0.00 52 1007.9
20260504034340 21 109 4.8 16.1 0.00 0.00 0.00 52 1007.3
20260504033835 21 76 3.2 16.1 0.00 0.00 0.00 53 1007.8
20260504033329 21 76 3.2 11.3 0.00 0.00 0.00 53 1008.2
20260504032824 20 147 4.8 11.3 0.00 0.00 0.00 53 1008.2
20260504032317 20 129 3.2 11.3 0.00 0.00 0.00 53 1008.4
20260504031811 20 158 1.6 8.0 0.00 0.00 0.00 54 1008.4
20260504031305 20 144 1.6 8.0 0.00 0.00 0.00 53 1008.4
20260504030758 20 146 1.6 4.8 0.00 0.00 0.00 54 1008.5
20260504030253 20 140 1.6 6.4 0.00 0.00 0.00 53 1008.5
20260504025747 21 73 1.6 6.4 0.00 0.00 0.00 53 1008.4
20260504025241 21 167 0.0 4.8 0.00 0.00 0.00 52 1008.3
20260504024735 21 117 0.0 3.2 0.00 0.00 0.00 52 1008.3
20260504024229 21 117 0.0 4.8 0.00 0.00 0.00 52 1008.3
20260504023723 21 117 0.0 4.8 0.00 0.00 0.00 51 1008.3
20260504023216 21 123 0.0 4.8 0.00 0.00 0.00 51 1008.3
20260504022934 21 117 0.0 8.0 0.00 0.00 0.00 50 1008.4
20260504022205 21 183 1.6 8.0 0.00 0.00 0.00 49 1008.4
20260504021849 21 150 1.6 9.7 0.00 0.00 0.00 49 1008.4
20260504021738 21 181 1.6 9.7 0.00 0.00 0.00 49 1008.3
20260504020647 22 126 1.6 8.0 0.00 0.00 0.00 49 1008.3
20260504020141 22 178 1.6 8.0 0.00 0.00 0.00 48 1008.3
20260504015635 22 219 1.6 11.3 0.00 0.00 0.00 48 1008.3
20260504015348 22 179 1.6 11.3 0.00 0.00 0.00 48 1008.3
20260504014623 22 202 1.6 6.4 0.00 0.00 0.00 48 1008.3
20260504014117 22 80 1.6 6.4 0.00 0.00 0.00 48 1008.2
20260504013611 22 134 1.6 9.7 0.00 0.00 0.00 47 1008.2
20260504013105 22 228 3.2 9.7 0.00 0.00 0.00 47 1008.2
20260504012821 22 164 1.6 8.0 0.00 0.00 0.00 47 1007.8
20260504012053 22 140 1.6 9.7 0.00 0.00 0.00 47 1007.7
20260504011547 22 95 1.6 9.7 0.00 0.00 0.00 46 1007.7
20260504011305 22 111 1.6 6.4 0.00 0.00 0.00 46 1007.6
20260504010535 22 116 1.6 6.4 0.00 0.00 0.00 45 1007.6
20260504010248 22 125 1.6 6.4 0.00 0.00 0.00 45 1007.6
20260504005523 23 96 1.6 4.8 0.00 0.00 0.00 45 1007.6
20260504005022 23 126 1.6 3.2 0.00 0.00 0.00 45 1007.7
20260504004520 23 125 1.6 3.2 0.00 0.00 0.00 44 1007.6
20260504004018 23 132 1.6 4.8 0.00 0.00 0.00 44 1007.6
20260504003516 23 142 1.6 6.4 0.00 0.00 0.00 43 1007.6
20260504003016 23 51 1.6 6.4 0.00 0.00 0.00 43 1007.6
20260504002516 23 123 1.6 6.4 0.00 0.00 0.00 42 1007.7
20260504002015 23 123 1.6 6.4 0.00 0.00 0.00 43 1007.7
20260504001515 23 135 1.6 6.4 0.00 0.00 0.00 42 1007.7
20260504001235 23 133 1.6 6.4 0.00 0.00 0.00 41 1007.7
20260504000514 24 232 1.6 4.8 0.00 0.00 0.00 42 1007.7
20260504000013 24 126 1.6 11.3 0.00 0.00 0.00 41 1007.7
20260503235515 24 190 3.2 11.3 0.00 0.00 0.00 40 1007.8